Weather History for Las Vegas, NV

Change the Weather History Date:

Tuesday, December 10, 2013

  Actual Average Record
Temperature  
Mean Temperature 36 °F 48 °F  
Max Temperature 45 °F 57 °F 74 °F (1950)
Min Temperature 26 °F 39 °F 20 °F (1972)
Degree Days  
Heating Degree Days 29 17  
Month to date heating degree days 230 162  
Since 1 July heating degree days 493 471  
Cooling Degree Days 0 0  
Month to date cooling degree days 0 0  
Year to date cooling degree days 3766 3568  
Moisture  
Dew Point 7 °F    
Average Humidity 32    
Maximum Humidity 46    
Minimum Humidity 18    
Precipitation  
Precipitation 0.00 in 0.02 in 0.08 in (1954)
Month to date precipitation 0.05 0.13  
Year to date precipitation 2.96 3.82  
Snow  
Snow 0.00 in 0.10 in 0.00 in (2012)
Month to date snowfall 0.0 0.1  
Since 1 July snowfall 0.0 0.1  
Snow Depth 0.00 in    
Sea Level Pressure  
Sea Level Pressure 30.35 in    
Wind  
Wind Speed 6 mph (SSW)    
Max Wind Speed 12 mph    
Max Gust Speed 13 mph    
Visibility 10 miles    
Events      
T = Trace of Precipitation, MM = Missing Value Source: NWS Daily Summary

Daily Weather History Graph

Daily Weather History Graph

Search for Another Location

Airport:

Trip Planner

Search our weather history database for the weather conditions in past years. The results will help you decide how hot, cold, wet, or windy it might be!

Date:

Astronomy

Dec. 10, 2013 Rise Set
Actual Time 6:40 AM PST 4:26 PM PST
Civil Twilight 6:12 AM PST 4:54 PM PST
Nautical Twilight 5:40 AM PST 5:26 PM PST
Astronomical Twilight 5:09 AM PST 5:58 PM PST
Moon 12:20 PM PST (12/10) 12:13 AM PST (12/10)
Length of Visible Light 10h 42m
Length of Day
9h 45m
Waxing Gibbous, 63% of the Moon is Illuminated
Dec 10
Waxing Gibbous
Dec 17
Full
Dec 25
Last Quarter
Jan 1
New
Jan 7
First Quarter

Hourly Weather History & Observations

Time (PST) Temp. Windchill Dew Point Humidity Pressure Visibility Wind Dir Wind Speed Gust Speed Precip Events Conditions
12:56 AM 30.0 °F 24.1 °F 7.0 °F 38% 30.49 in 10.0 mi SSW 5.8 mph - N/A   Clear
1:56 AM 28.0 °F 19.3 °F 8.1 °F 43% 30.48 in 10.0 mi SSW 9.2 mph - N/A   Clear
2:56 AM 28.0 °F 19.3 °F 8.1 °F 43% 30.47 in 10.0 mi SSW 9.2 mph - N/A   Clear
3:56 AM 27.0 °F 20.5 °F 8.1 °F 45% 30.46 in 10.0 mi SW 5.8 mph - N/A   Clear
4:56 AM 27.0 °F 19.5 °F 8.1 °F 45% 30.44 in 10.0 mi SW 6.9 mph - N/A   Clear
5:56 AM 27.0 °F 18.7 °F 8.1 °F 45% 30.45 in 10.0 mi SSW 8.1 mph - N/A   Clear
6:56 AM 28.0 °F 20.0 °F 7.0 °F 41% 30.44 in 10.0 mi South 8.1 mph - N/A   Clear
7:56 AM 32.0 °F 27.5 °F 6.1 °F 34% 30.44 in 10.0 mi South 4.6 mph - N/A   Clear
8:56 AM 35.1 °F - 5.0 °F 28% 30.44 in 10.0 mi Calm Calm - N/A   Clear
9:56 AM 37.0 °F 34.5 °F 3.9 °F 25% 30.43 in 10.0 mi South 3.5 mph - N/A   Clear
10:56 AM 39.0 °F - 5.0 °F 24% 30.39 in 10.0 mi Calm Calm - N/A   Clear
11:56 AM 41.0 °F 39.0 °F 1.9 °F 20% 30.34 in 10.0 mi SSE 3.5 mph - N/A   Clear
12:56 PM 43.0 °F 40.3 °F 3.0 °F 19% 30.30 in 10.0 mi Variable 4.6 mph - N/A   Partly Cloudy
1:56 PM 44.1 °F 42.5 °F 3.9 °F 19% 30.27 in 10.0 mi SE 3.5 mph - N/A   Partly Cloudy
2:56 PM 44.1 °F 42.5 °F 3.9 °F 19% 30.25 in 10.0 mi South 3.5 mph - N/A   Clear
3:56 PM 44.1 °F 42.5 °F 3.0 °F 18% 30.25 in 10.0 mi South 3.5 mph - N/A   Partly Cloudy
4:56 PM 42.1 °F 38.4 °F 6.1 °F 23% 30.25 in 10.0 mi South 5.8 mph - N/A   Partly Cloudy
5:56 PM 42.1 °F 37.7 °F 7.0 °F 24% 30.25 in 10.0 mi SSW 6.9 mph - N/A   Clear
6:56 PM 37.9 °F 31.5 °F 9.0 °F 30% 30.25 in 10.0 mi SSW 9.2 mph - N/A   Clear
7:56 PM 37.0 °F 31.6 °F 10.9 °F 34% 30.26 in 10.0 mi SSW 6.9 mph - N/A   Clear
8:56 PM 36.0 °F 29.6 °F 12.0 °F 37% 30.26 in 10.0 mi SSW 8.1 mph - N/A   Clear
9:56 PM 35.1 °F 30.1 °F 12.0 °F 39% 30.27 in 10.0 mi SW 5.8 mph - N/A   Clear
10:56 PM 33.1 °F 28.7 °F 14.0 °F 46% 30.27 in 10.0 mi SW 4.6 mph - N/A   Clear
11:56 PM 33.1 °F 24.9 °F 14.0 °F 46% 30.26 in 10.0 mi SSW 10.4 mph - N/A   Clear